Regional Weather Roundup
Issued by NWS Midland/Odessa, TX

Skip options and go directly to product.
Home | Oldest Version | Previous Version | Current Version | All | Graphics & Text | Save Text | Print | Product List | Glossary On

Skip product version selection by date and time.   
794
ASUS44 KMAF 281810
RWRMAF
MIDLAND AREA WEATHER ROUNDUP
NATIONAL WEATHER SERVICE MIDLAND TX
1200 PM CST FRI NOV 28 2014

...IN SOUTHWEST TEXAS AND SOUTHEAST NEW MEXICO...

CITY           SKY/WX    TMP DP  RH WIND       PRES   REMARKS
ALPINE         SUNNY     67  19  16 SW21G26   30.29F
ANDREWS        FAIR      66  26  21 SW13      30.15F
ARTESIA        NOT AVBL
BIG SPRING     SUNNY     66  33  29 S16       30.16F
CARLSBAD       SUNNY     57  31  37 VRB3      30.13F
DRYDEN           N/A     62  34  35 S12       30.20F
FORT STOCKTON  SUNNY     73  21  14 SW16G23   30.16F
GUAD PASS      NOT AVBL
HOBBS          SUNNY     64  25  22 SW10      30.16F
MARFA          SUNNY     63  25  23 S10       30.29F
MIDLAND AIRPK  SUNNY     66  32  28 S13       30.16F
MIDLAND INTL   SUNNY     64  32  30 S12       30.15F
ODESSA         SUNNY     64  30  27 SW12      30.16F
PECOS          SUNNY     62  30  30 SE8       30.16F
PRESIDIO       FAIR      61  30  31 CALM      30.25F
SEMINOLE       SUNNY     66  28  24 SW12      30.15F
SNYDER         SUNNY     64  37  36 SW17G24   30.12F
WINK           SUNNY     67  25  20 SW14      30.14F
$$
...OTHER STATIONS IN TEXAS...

CITY           SKY/WX    TMP DP  RH WIND       PRES   REMARKS
ABILENE        SUNNY     62  45  53 S28G33    30.13F
AMARILLO       MOSUNNY   71  24  17 W12       30.00F
AUSTIN         MOSUNNY   68  53  58 SW15G24   30.23F
BROWNSVILLE    SUNNY     77  55  46 S16G22    30.27F
CORPUS CHRISTI MOSUNNY   73  53  49 S17       30.27F
DALLAS FTW     MOSUNNY   64  48  56 S23       30.15F
DEL RIO        MOSUNNY   58  50  75 NE6       30.24F
EL PASO        MOSUNNY   58  22  24 CALM      30.24F
HOUSTON INT    MOSUNNY   68  53  58 S13       30.28F
LUBBOCK        PTSUNNY   64  31  28 SW15      30.08F
SAN ANGELO     SUNNY     67  43  41 SW23G29   30.18F
SAN ANTONIO    MOSUNNY   67  51  56 SW17      30.26F
WACO           SUNNY     64  51  62 S24G31    30.22F
WICHITA FALLS  NOT AVBL
$$
...OTHER LOCATIONS IN NEW MEXICO...

CITY           SKY/WX    TMP DP  RH WIND       PRES   REMARKS
ALAMAGORDO     SUNNY     57  23  26 SW5       30.25F
ALBUQUERQUE    MOSUNNY   51  21  30 CALM      30.26F
CANNON AFB     MOSUNNY   67  22  18 W16       30.10F
CLOVIS         SUNNY     70  25  18 W20       30.09F
HOLLOMAN AFB   MOSUNNY   57  23  26 CALM      30.24F
ROSWELL        SUNNY     56  32  40 CALM      30.14F
RUIDOSO        SUNNY     59  19  21 NW8       30.28F
SANTA FE       SUNNY     53  19  26 SW10      30.25F
TRUTH OR CONSE SUNNY     55  22  27 SE6       30.25F
TUCUMCARI      PTSUNNY   73  16  11 W21       30.03F
$$

USA.gov is the U.S. government's official web portal to all federal, state and local government web resources and services.